Marshfield, WI

12:11 AM CST on February 12, 2016 (GMT -0600)
Marshfield Municipal

Weather History for KMFI - August, 2013

Change the Weather History Date:

Friday, August 2, 2013

  Actual Average Record
Temperature  
Mean Temperature 65 °F -  
Max Temperature 75 °F - - ()
Min Temperature 55 °F - - ()
Growing Degree Days 15 (Base 50)    
Moisture  
Dew Point 54 °F    
Average Humidity 69    
Maximum Humidity 97    
Minimum Humidity 38    
Precipitation  
Precipitation 0.00 in - - ()
Sea Level Pressure  
Sea Level Pressure 29.90 in    
Wind  
Wind Speed 5 mph (NW)    
Max Wind Speed 14 mph    
Max Gust Speed 18 mph    
Visibility 10 miles    
Events      
T = Trace of Precipitation, MM = Missing Value Source: NWS Daily Summary

Daily Weather History Graph

Daily Weather History Graph

Search for Another Location

Airport or City:

Trip Planner

Search our weather history database for the weather conditions in past years. The results will help you decide how hot, cold, wet, or windy it might be!

Date:

Astronomy

Aug. 02, 2013 Rise Set
Actual Time 5:48 AM CDT 8:24 PM CDT
Civil Twilight 5:15 AM CDT 8:57 PM CDT
Nautical Twilight 4:33 AM CDT 9:39 PM CDT
Astronomical Twilight 3:45 AM CDT 10:27 PM CDT
Moon 2:07 AM CDT (8/2) 5:24 PM CDT (8/2)
Length of Visible Light 15h 42m
Length of Day
14h 36m
Waning Crescent, 15% of the Moon is Illuminated
Aug 2
Waning Crescent
Aug 6
New
Aug 14
First Quarter
Aug 20
Full
Aug 28
Last Quarter

Hourly Weather History & Observations

Time (CDT) Temp. Dew Point Humidity Pressure Visibility Wind Dir Wind Speed Gust Speed Precip Events Conditions
12:54 AM 57.0 °F 55.0 °F 93% 29.86 in 10.0 mi South 4.6 mph - N/A   Partly Cloudy
1:54 AM 57.0 °F 55.0 °F 93% 29.84 in 10.0 mi Calm Calm - N/A   Mostly Cloudy
2:54 AM 57.0 °F 55.0 °F 93% 29.85 in 10.0 mi WSW 3.5 mph - N/A   Mostly Cloudy
3:54 AM 59.0 °F 55.0 °F 87% 29.85 in 10.0 mi Calm Calm - N/A   Clear
4:54 AM 55.9 °F 55.0 °F 97% 29.84 in 10.0 mi WNW 3.5 mph - N/A   Clear
5:54 AM 55.0 °F 53.1 °F 93% 29.83 in 9.0 mi NW 6.9 mph - N/A   Clear
6:54 AM 59.0 °F 57.0 °F 93% 29.84 in 10.0 mi NNW 4.6 mph - N/A   Clear
7:54 AM 62.1 °F 57.0 °F 84% 29.86 in 10.0 mi Calm Calm - N/A   Clear
8:54 AM 66.9 °F 59.0 °F 76% 29.87 in 10.0 mi WNW 6.9 mph - N/A   Clear
9:54 AM 71.1 °F 57.9 °F 63% 29.87 in 10.0 mi West 8.1 mph - N/A   Clear
10:54 AM 73.9 °F 55.9 °F 53% 29.87 in 10.0 mi NNW 10.4 mph - N/A   Partly Cloudy
11:54 AM 73.0 °F 54.0 °F 51% 29.88 in 10.0 mi North 12.7 mph - N/A   Mostly Cloudy
12:54 PM 73.9 °F 54.0 °F 50% 29.89 in 10.0 mi NNW 11.5 mph - N/A   Scattered Clouds
1:54 PM 75.0 °F 52.0 °F 44% 29.90 in 10.0 mi NW 11.5 mph 18.4 mph N/A   Partly Cloudy
2:54 PM 75.0 °F 48.9 °F 40% 29.91 in 10.0 mi NNW 9.2 mph - N/A   Partly Cloudy
3:54 PM 75.9 °F 48.9 °F 38% 29.91 in 10.0 mi NW 13.8 mph - N/A   Partly Cloudy
4:54 PM 75.0 °F 50.0 °F 41% 29.91 in 10.0 mi NW 10.4 mph - N/A   Clear
5:54 PM 73.0 °F 48.9 °F 42% 29.92 in 10.0 mi NW 10.4 mph - N/A   Clear
6:54 PM 71.1 °F 50.0 °F 47% 29.93 in 10.0 mi NW 8.1 mph - N/A   Clear
7:54 PM 66.9 °F 53.1 °F 61% 29.95 in 10.0 mi WNW 4.6 mph - N/A   Clear
8:54 PM 64.0 °F 54.0 °F 70% 29.96 in 10.0 mi Calm Calm - N/A   Clear
9:54 PM 61.0 °F 53.1 °F 75% 29.99 in 10.0 mi NW 4.6 mph - N/A   Clear
10:54 PM 57.9 °F 52.0 °F 81% 29.99 in 10.0 mi NNW 3.5 mph - N/A   Clear
11:54 PM 55.9 °F 51.1 °F 84% 30.01 in 10.0 mi NW 4.6 mph - N/A   Clear